Location: Bursinel
(46.4387°N, 6.3054°E)
Time: 04:08:13
(UTC+00:00)

Daily predictions for brighter satellites

Satellite Brightness Start Highest point End
(mag) Time Altitude Azimuth Time Altitude Azimuth Time Altitude Azimuth
SL-16 R/B 3.9 00:36:20 33° ENE 00:36:20 33° ENE 00:41:44 10° N
Lacrosse 5 4.4 00:46:22 16° ENE 00:46:22 16° ENE 00:47:25 10° NE
Cosmos 2369 Rocket 4.1 00:51:44 23° ENE 00:51:44 23° ENE 00:54:18 10° NE
Cosmos 1943 Rocket 3.6 01:10:34 33° N 01:10:34 33° N 01:13:47 10° NNE
Resurs 1-4 Rocket 3.6 01:06:19 10° NNE 01:09:18 33° NE 01:09:18 33° NE
CZ-2D R/B 3.5 01:10:43 10° NNE 01:13:47 35° NNE 01:13:47 35° NNE
IDEFIX/ARIANE 42P 4.1 01:11:04 10° NNE 01:14:03 31° NE 01:14:03 31° NE
Cosmos 2278 Rocket 4.1 01:18:05 22° NNW 01:18:05 22° NNW 01:21:22 10° N
Cosmos 2285 Rocket 4.2 01:42:04 65° NE 01:42:04 65° NE 01:47:24 10° NNE
ATLAS 5 CENTAUR R/B 3.9 01:49:50 17° N 01:49:50 17° N 01:51:22 10° NNE
Cosmos 1745 Rocket 4.3 01:50:55 60° N 01:50:55 60° N 01:55:54 10° N
NOSS 3-3 (A) 4.3 01:51:44 55° E 01:51:44 55° E 01:57:08 10° NE
NOSS 3-3 (C) 4.3 01:51:50 55° E 01:51:50 55° E 01:57:15 10° NE
Thor Agena Rocket 4.3 01:55:37 10° NNE 01:59:16 48° NNE 01:59:16 48° NNE
Cosmos 1709 Rocket 3.9 02:01:31 78° NE 02:01:31 78° NE 02:07:19 10° N
Cosmos 44 4.5 02:03:03 37° NNE 02:03:03 37° NNE 02:05:56 10° NE
Meteor 1-25 Rocket 4.5 01:57:52 10° N 02:02:49 65° NNE 02:02:49 65° NNE
Cosmos 2181 Rocket 4.4 02:00:51 10° N 02:07:14 61° ENE 02:09:30 39° SE
ADEOS II 2.6 02:03:01 10° NNE 02:07:06 54° N 02:07:06 54° N
Cosmos 1538 Rocket 4.4 02:13:57 60° N 02:13:57 60° N 02:18:25 10° NNE
ATLAS CENTAUR R/B 3.1 02:14:40 30° N 02:14:40 30° N 02:17:13 10° NNE
Cosmos 1782 4.4 02:20:47 32° NNE 02:20:47 32° NNE 02:23:04 10° NNE
SL-16 R/B 3.2 02:21:24 39° NW 02:21:24 39° NW 02:25:43 10° NNW
IRS-1D 4.1 02:19:47 10° NNE 02:24:37 49° E 02:25:11 47° ESE
Lacrosse 5 2.9 02:25:33 37° NNW 02:25:39 37° NNW 02:30:23 10° NE
MSX 4.1 02:27:18 10° N 02:32:40 53° WNW 02:32:40 53° WNW
Cosmos 2369 Rocket 2.8 02:33:30 42° NW 02:33:30 42° NW 02:38:33 10° NNE
SeaSat 1 2.4 02:29:54 10° NNE 02:34:46 85° ENE 02:34:46 85° ENE
Cosmos 1656 Rocket 4.4 02:38:51 38° NW 02:38:51 38° NW 02:43:45 10° NNE
Cosmos 2297 Rocket 4.3 02:34:38 10° N 02:39:23 27° NE 02:44:08 10° ESE
Cosmos 1933 4.4 02:41:05 39° N 02:41:05 39° N 02:43:45 10° N
Cosmos 2221 3.2 02:42:19 48° NNW 02:42:19 48° NNW 02:45:35 10° N
Genesis I 4.1 02:44:58 46° E 02:44:58 46° E 02:48:10 10° NE
FENGYUN 3A 3.5 02:40:28 10° NNE 02:45:57 88° WNW 02:46:49 65° SSW
CZ-2C R/B 3.0 02:40:53 11° SSE 02:46:16 68° ENE 02:51:45 10° N
Cosmos 2074 Rocket 4.2 02:44:13 32° S 02:47:16 70° E 02:53:32 10° NNE
BREEZE-M DEB (TANK) 3.8 02:47:29 45° WSW 02:49:52 90° S 02:53:22 10° ENE
Resurs 1-4 Rocket 3.6 02:46:58 10° N 02:50:23 22° NW 02:50:23 22° NW
Cosmos 1943 Rocket 4.3 02:52:04 13° NW 02:53:14 14° NW 02:56:01 10° N
Cosmos 1812 4.3 02:56:53 25° NNW 02:56:53 25° NNW 02:58:44 10° N
IDEFIX/ARIANE 42P 3.8 02:51:07 10° N 02:54:50 26° NW 02:54:50 26° NW
CZ-2D R/B 3.7 02:51:40 10° NNW 02:55:06 21° NW 02:55:06 21° NW
COSMOS 2455 4.4 02:55:08 12° SSE 02:59:45 30° ESE 03:04:53 10° NE
USA 276 3.9 03:02:30 28° ENE 03:02:30 28° ENE 03:04:02 10° ENE
Meteor 1-26 Rocket 4.1 03:03:21 48° SSW 03:04:59 75° WNW 03:10:47 10° N
ALOS 2.2 03:05:02 10° N 03:09:40 67° WNW 03:10:21 58° WSW
Envisat 4.1 03:06:24 10° NNE 03:11:12 41° E 03:15:58 10° SSE
ATLAS 2AS CENTAUR R/B 4.5 03:08:51 10° NNW 03:15:02 30° NNE 03:20:54 10° E
CZ-2C R/B 2.4 03:10:24 10° NNE 03:15:15 83° ESE 03:17:41 31° S
Helios 1A 2.8 03:18:45 25° S 03:21:04 79° WSW 03:25:13 10° NNW
Sich 1 3.3 03:20:53 10° N 03:25:19 70° E 03:29:42 10° SSE
Cosmos 1408 Rocket 3.8 03:21:17 10° NNW 03:25:35 47° W 03:25:56 46° WSW
GEOS 3 Rocket 3.8 03:22:02 10° SE 03:27:14 76° NE 03:32:34 10° NW
DELTA 2 R/B (1) 4.1 03:28:03 33° SW 03:29:41 42° S 03:34:56 10° ESE
Cosmos 1743 3.6 03:28:11 10° N 03:31:50 49° ENE 03:35:27 10° SSE
YAOGAN 6 2.9 03:28:24 10° NNE 03:31:55 62° E 03:34:06 21° S
NOSS 2-1 (C) 3.9 03:29:42 10° NW 03:33:59 84° NE 03:40:02 10° SE
NOSS 3-4 (A) 3.8 03:27:11 10° NW 03:34:08 70° SW 03:42:03 10° SSE
NOSS 3-4 (C) 3.8 03:27:17 10° NW 03:34:15 71° SW 03:42:10 10° SSE
NOSS 2-1 (D) 3.8 03:34:36 10° NW 03:38:55 90° WSW 03:44:58 10° SE
Meteor 2-6 Rocket 4.3 03:35:43 15° SSW 03:40:46 78° W 03:46:45 10° N
Cosmos 1743 Rocket 3.6 03:37:26 10° NNW 03:41:49 57° W 03:46:12 10° S
Orbus 7S? 3.8 03:35:34 10° NW 03:42:48 88° NE 03:46:12 10° SE
Cosmos 1633 Rocket 4.5 03:39:28 10° N 03:43:39 40° ENE 03:47:48 10° SE
IRS-1C 4.4 03:40:08 10° NNE 03:45:29 68° ESE 03:50:47 10° S
Cosmos 192 4.5 03:41:54 10° NNW 03:46:51 78° ENE 03:51:45 10° SSE
ADEOS II 4.0 03:44:44 10° NNW 03:47:04 13° NW 03:48:01 13° WNW
Cosmos 2184 Rocket 4.3 03:43:48 23° SW 03:47:20 45° WNW 03:53:15 10° N
Cosmos 1680 Rocket 4.1 03:45:16 27° WSW 03:47:23 38° WNW 03:52:20 10° N
Meteor 1-14 Rocket 4.3 03:43:41 10° NNW 03:49:02 51° W 03:54:26 10° SSW
Meteor 1-10 Rocket 4.4 03:44:06 10° S 03:50:02 84° E 03:56:00 10° NNE
Helios 1B rocket 3.8 03:46:40 10° NNE 03:50:26 38° E 03:54:10 10° SSE
METEOR-M 4.3 03:46:56 10° N 03:52:09 56° WNW 03:56:11 17° SW
ATLAS CENTAUR R/B 3.9 03:50:56 10° NW 03:52:29 12° NNW 03:54:01 10° N
SAR-Lupe-2 3.6 03:52:00 10° NNE 03:55:36 83° ESE 03:59:10 10° SSW
ARIANE 5 R/B 2.7 03:55:14 10° NNE 04:00:26 81° ESE 04:05:40 10° SSW
Cosmos 1697 Rocket 4.0 03:55:39 10° S 04:00:51 40° ESE 04:06:04 10° NE
CZ-2C R/B 3.0 03:57:25 10° N 04:02:06 57° WNW 04:06:47 11° SSW
SL-08 R/B 3.9 03:59:00 10° SSE 04:03:47 63° ENE 04:08:30 10° N
Cosmos 405 Rocket 2.7 04:03:00 10° S 04:06:36 76° E 04:10:15 10° NNE
BREEZE-M DEB (TANK) 2.9 04:02:55 12° WNW 04:06:42 59° N 04:09:00 10° E
Cosmos 1461 3.7 04:04:09 21° WSW 04:06:42 42° NW 04:11:05 10° NNE
Cosmos 2056 Rocket 4.3 04:03:02 10° NW 04:07:29 29° W 04:12:00 10° SSW
USA 102 4.5 03:29:12 34° NNW 04:07:42 18° NW 04:12:11 10° NW
USA 281 3.6 04:02:03 10° SE 04:08:34 70° ENE 04:15:06 10° NNW
Lacrosse 5 3.7 04:05:38 10° NW 04:09:48 25° N 04:13:59 10° NE
Cosmos 2154 Rocket 4.5 04:05:10 13° SW 04:10:24 41° WNW 04:16:17 10° N
SeaSat 1 4.1 04:08:22 10° N 04:11:47 19° NW 04:14:31 13° W
H-2A R/B 2.8 04:09:06 10° NNE 04:12:43 73° ESE 04:16:16 10° S
Cosmos 1437 Rocket 2.6 04:10:55 10° N 04:14:46 89° ENE 04:18:32 10° S
H-2A R/B 4.4 04:12:11 10° NE 04:16:12 25° E 04:20:12 10° SSE
GP-B 3.0 04:12:02 10° N 04:16:27 69° W 04:20:49 10° SSW
Cosmos 2369 Rocket 4.4 04:17:38 10° NW 04:18:52 11° NNW 04:20:07 10° NNW
Cosmos 1470 Rocket 4.3 04:15:01 10° N 04:19:22 57° ENE 04:23:39 10° SSE
Cosmos 1980 Rocket 4.2 04:16:11 10° SSE 04:21:02 30° ESE 04:25:54 10° NE
OE (NEXTSAT) 3.8 04:20:09 20° WSW 04:21:41 56° SSE 04:24:12 10° E
Cosmos 1110 Rocket 4.0 04:16:34 10° NNW 04:21:47 89° WSW 04:26:58 10° SSE
COSMO-SKYMED 1 3.6 04:19:28 10° SSE 04:23:40 51° ENE 04:27:54 10° N
IRS-P3 4.1 04:18:31 10° N 04:23:49 69° WNW 04:29:06 10° SSW
Cosmos 2297 Rocket 2.2 04:18:16 10° NNW 04:23:51 60° WSW 04:29:24 10° S
Meteor 1-27 Rocket 3.7 04:18:38 10° SSW 04:24:26 82° W 04:30:09 10° N
Cosmos 1607 4.1 04:20:23 11° SW 04:26:10 61° NW 04:32:22 10° NNE
CZ-2C R/B 4.0 04:23:06 10° SW 04:27:00 19° W 04:30:53 10° NW
Cosmos 1328 Rocket 3.5 04:24:06 10° S 04:28:24 82° W 04:32:44 10° N
NOAA 11 4.2 04:23:21 10° N 04:28:45 69° WNW 04:34:09 10° SSW
Cosmos 1378 3.0 04:26:05 10° SSW 04:29:37 65° W 04:33:11 10° N
Cosmos 2218 Rocket 4.1 04:25:23 10° S 04:31:43 82° W 04:38:10 10° N
Cosmos 1484 Rocket 3.4 04:28:26 10° N 04:31:53 35° WNW 04:35:22 10° SW
Cosmos 1331 Rocket 4.0 04:27:09 10° NNW 04:32:26 80° WSW 04:37:41 10° SSE
NOSS 2-1 (E) 4.5 04:28:14 10° NW 04:32:37 41° SW 04:38:37 10° S
Cosmos 1536 3.2 04:29:39 10° NNW 04:33:24 41° W 04:37:07 10° SSW
Cosmos 494 Rocket 4.1 04:29:53 10° SW 04:35:03 58° WNW 04:40:15 10° NNE
USA 276 2.9 04:33:50 10° WNW 04:36:33 39° N 04:39:19 10° ENE
BREEZE-M DEB (TANK) 4.2 04:28:55 10° W 04:38:11 65° NNW 04:41:21 10° ENE
Cosmos 2227 Rocket 2.2 04:35:05 10° NNW 04:40:43 73° WSW 04:46:20 10° SSE
Cosmos 2219 3.3 04:36:41 10° NNW 04:42:23 88° ENE 04:48:05 10° SSE
Cosmos 1151 Rocket 3.8 04:39:25 10° SW 04:43:18 31° WNW 04:47:10 10° N
Cosmos 1452 Rocket 3.8 04:39:52 10° NNW 04:44:52 44° WSW 04:49:50 10° S
COSMOS 2455 3.1 04:39:28 10° SW 04:45:22 55° NW 04:51:19 10° NNE
Cosmos 2341 Rocket 4.3 04:39:22 10° SSW 04:45:32 49° WNW 04:51:42 10° N
Envisat 4.0 04:45:43 10° N 04:50:02 29° WNW 04:54:19 10° WSW
Meteor 1-11 Rocket 4.3 04:45:55 10° NNW 04:50:53 34° W 04:55:47 10° SSW
Cosmos 1048 Rocket 4.4 04:46:14 10° SW 04:51:23 47° WNW 04:56:35 10° NNE
